FIN928 ESSA-EFHK

Flight info

Callsign FIN928
Flight time 0h 41m
Altitude 29000
Route TOVRI N851 RIKUM DCT RIRIP Y364 LAKUT
Aircraft A320/M-SDE3FGHIRWY/LB1

Departure

Time 2026-04-26 18:40
Airport Stockholm-Arlanda Airport (ESSA)

Arrival

Time 2026-04-26 19:21
Airport Helsinki Vantaa Airport (EFHK)
Time Latitude Longitude Altitude Speed Heading
2026-04-26 18:04 59.64347 17.92869 113 ft 0 kts 36°
2026-04-26 18:23 59.64333 17.92849 111 ft 4 kts 36°
2026-04-26 18:24 59.64312 17.92817 112 ft 4 kts 45°
2026-04-26 18:24 59.64298 17.92776 112 ft 4 kts 88°
2026-04-26 18:24 59.64297 17.92766 111 ft 0 kts 96°
2026-04-26 18:28 59.64297 17.92768 112 ft 1 kts 96°
2026-04-26 18:28 59.64294 17.92775 112 ft 1 kts 133°
2026-04-26 18:28 59.64285 17.92775 111 ft 3 kts 182°
2026-04-26 18:28 59.64254 17.92745 111 ft 5 kts 212°
2026-04-26 18:29 59.64244 17.92667 113 ft 8 kts 285°
2026-04-26 18:29 59.64267 17.92573 112 ft 6 kts 285°
2026-04-26 18:29 59.64249 17.92478 115 ft 11 kts 225°
2026-04-26 18:29 59.64239 17.92345 114 ft 10 kts 294°
2026-04-26 18:30 59.64268 17.92234 114 ft 6 kts 297°
2026-04-26 18:30 59.64279 17.92191 113 ft 0 kts 297°
2026-04-26 18:33 59.64280 17.92186 113 ft 3 kts 297°
2026-04-26 18:33 59.64284 17.92081 115 ft 10 kts 246°
2026-04-26 18:33 59.64216 17.92027 115 ft 10 kts 191°
2026-04-26 18:34 59.64149 17.91998 114 ft 9 kts 204°
2026-04-26 18:34 59.64133 17.91882 114 ft 10 kts 262°
2026-04-26 18:34 59.64077 17.91812 114 ft 10 kts 193°
2026-04-26 18:34 59.64009 17.91787 113 ft 10 kts 190°
2026-04-26 18:35 59.63937 17.91761 111 ft 11 kts 190°
2026-04-26 18:35 59.63861 17.91723 109 ft 12 kts 203°
2026-04-26 18:35 59.63791 17.91625 107 ft 11 kts 220°
2026-04-26 18:35 59.63787 17.91619 107 ft 0 kts 221°
2026-04-26 18:37 59.63768 17.91585 106 ft 7 kts 221°
2026-04-26 18:37 59.63731 17.91510 107 ft 8 kts 238°
2026-04-26 18:38 59.63729 17.91409 109 ft 7 kts 283°
2026-04-26 18:38 59.63746 17.91336 110 ft 6 kts 328°
2026-04-26 18:38 59.63767 17.91337 110 ft 0 kts
2026-04-26 18:39 59.63808 17.91349 110 ft 29 kts
2026-04-26 18:39 59.64272 17.91515 107 ft 102 kts 11°
2026-04-26 18:40 59.65167 17.91830 117 ft 156 kts
2026-04-26 18:40 59.66185 17.92261 831 ft 147 kts
2026-04-26 18:40 59.67171 17.92628 1557 ft 141 kts
2026-04-26 18:40 59.68193 17.92986 2004 ft 159 kts
2026-04-26 18:41 59.69357 17.93388 2355 ft 181 kts
2026-04-26 18:41 59.70641 17.93839 2942 ft 191 kts
2026-04-26 18:41 59.71957 17.94313 3799 ft 193 kts
2026-04-26 18:41 59.73281 17.94792 4659 ft 195 kts
2026-04-26 18:42 59.74589 17.95598 5466 ft 204 kts 31°
2026-04-26 18:42 59.75432 17.97941 6225 ft 221 kts 70°
2026-04-26 18:42 59.75517 18.01081 6891 ft 239 kts 85°
2026-04-26 18:42 59.75744 18.04450 7257 ft 257 kts 71°
2026-04-26 18:43 59.76280 18.07965 7796 ft 272 kts 66°
2026-04-26 18:43 59.76923 18.11550 8615 ft 278 kts 65°
2026-04-26 18:43 59.77585 18.15181 9517 ft 283 kts 65°
2026-04-26 18:43 59.78245 18.18898 10345 ft 290 kts 65°
2026-04-26 18:44 59.78925 18.22847 10652 ft 314 kts 66°
2026-04-26 18:44 59.79628 18.27071 11173 ft 328 kts 66°
2026-04-26 18:44 59.80328 18.31425 11946 ft 333 kts 66°
2026-04-26 18:44 59.81023 18.35839 12755 ft 337 kts 66°
2026-04-26 18:45 59.81719 18.40308 13569 ft 340 kts 65°
2026-04-26 18:45 59.82421 18.44821 14322 ft 343 kts 65°
2026-04-26 18:45 59.83135 18.49384 14993 ft 347 kts 64°
2026-04-26 18:45 59.83857 18.53993 15656 ft 352 kts 64°
2026-04-26 18:46 59.84587 18.58665 16311 ft 356 kts 64°
2026-04-26 18:46 59.85326 18.63397 16960 ft 360 kts 63°
2026-04-26 18:46 59.86072 18.68193 17609 ft 365 kts 63°
2026-04-26 18:46 59.86824 18.73038 18245 ft 369 kts 63°
2026-04-26 18:47 59.87582 18.77950 18859 ft 373 kts 62°
2026-04-26 18:47 59.88344 18.82909 19429 ft 376 kts 62°
2026-04-26 18:47 59.89113 18.87921 20004 ft 380 kts 62°
2026-04-26 18:47 59.89888 18.92973 20570 ft 384 kts 62°
2026-04-26 18:48 59.90661 18.98013 21126 ft 387 kts 62°
2026-04-26 18:48 59.91450 19.03168 21685 ft 391 kts 62°
2026-04-26 18:48 59.92243 19.08387 22230 ft 395 kts 62°
2026-04-26 18:48 59.93038 19.13658 22781 ft 399 kts 62°
2026-04-26 18:49 59.93839 19.18978 23375 ft 403 kts 62°
2026-04-26 18:49 59.94645 19.24350 23888 ft 405 kts 62°
2026-04-26 18:49 59.95448 19.29758 24339 ft 409 kts 63°
2026-04-26 18:49 59.95927 19.35489 24771 ft 427 kts 73°
2026-04-26 18:50 59.96202 19.41404 25194 ft 430 kts 73°
2026-04-26 18:50 59.96510 19.47345 25608 ft 430 kts 72°
2026-04-26 18:50 59.96881 19.53279 26017 ft 432 kts 71°
2026-04-26 18:50 59.97293 19.59229 26408 ft 434 kts 70°
2026-04-26 18:51 59.97720 19.65206 26797 ft 436 kts 70°
2026-04-26 18:51 59.98144 19.71227 27160 ft 439 kts 71°
2026-04-26 18:51 59.98557 19.77299 27541 ft 443 kts 71°
2026-04-26 18:51 59.98957 19.83415 27914 ft 446 kts 71°
2026-04-26 18:52 59.99345 19.89577 28282 ft 449 kts 71°
2026-04-26 18:52 59.99597 19.93683 28521 ft 451 kts 72°
2026-04-26 18:52 60.00104 20.02023 28976 ft 454 kts 71°
2026-04-26 18:52 60.00481 20.08268 29053 ft 446 kts 72°
2026-04-26 18:53 60.01211 20.20572 29059 ft 455 kts 71°
2026-04-26 18:53 60.02011 20.33412 29038 ft 474 kts 72°
2026-04-26 18:54 60.02790 20.46573 29051 ft 479 kts 72°
2026-04-26 18:54 60.03536 20.59807 29037 ft 479 kts 72°
2026-04-26 18:55 60.04275 20.73056 29043 ft 479 kts 72°
2026-04-26 18:55 60.05012 20.86304 29031 ft 479 kts 72°
2026-04-26 18:56 60.05737 20.99561 29023 ft 479 kts 72°
2026-04-26 18:56 60.06453 21.12824 29021 ft 478 kts 72°
2026-04-26 18:57 60.07038 21.23821 29002 ft 478 kts 73°
2026-04-26 18:57 60.07836 21.39315 29000 ft 479 kts 73°
2026-04-26 18:58 60.08501 21.52493 28995 ft 479 kts 73°
2026-04-26 18:58 60.09162 21.65778 28997 ft 479 kts 73°
2026-04-26 18:59 60.09810 21.79076 29052 ft 480 kts 73°
2026-04-26 18:59 60.10445 21.92380 29060 ft 479 kts 75°
2026-04-26 19:00 60.11054 22.05635 28996 ft 477 kts 75°
2026-04-26 19:00 60.11652 22.18876 28977 ft 477 kts 75°
2026-04-26 19:01 60.12253 22.32122 28732 ft 478 kts 75°
2026-04-26 19:01 60.12547 22.38761 28445 ft 478 kts 75°
2026-04-26 19:01 60.12832 22.45411 28165 ft 478 kts 75°
2026-04-26 19:02 60.13112 22.52062 27873 ft 480 kts 75°
2026-04-26 19:02 60.13385 22.58689 27629 ft 470 kts 76°
2026-04-26 19:02 60.13631 22.65105 27471 ft 453 kts 76°
2026-04-26 19:02 60.13786 22.69223 27343 ft 442 kts 75°
2026-04-26 19:03 60.14104 22.77338 26777 ft 431 kts 75°
2026-04-26 19:03 60.14352 22.83297 26250 ft 426 kts 75°
2026-04-26 19:03 60.14600 22.89184 25710 ft 422 kts 75°
2026-04-26 19:03 60.14845 22.95025 25196 ft 418 kts 75°
2026-04-26 19:04 60.15079 23.00822 24726 ft 414 kts 75°
2026-04-26 19:04 60.15294 23.06482 24593 ft 400 kts 75°
2026-04-26 19:04 60.15493 23.11977 24382 ft 390 kts 74°
2026-04-26 19:04 60.15690 23.17358 24009 ft 384 kts 74°
2026-04-26 19:05 60.16091 23.27972 23156 ft 378 kts 75°
2026-04-26 19:05 60.16284 23.33169 22976 ft 367 kts 75°
2026-04-26 19:05 60.16463 23.38200 22846 ft 355 kts 76°
2026-04-26 19:06 60.16632 23.43073 22702 ft 344 kts 76°
2026-04-26 19:06 60.16794 23.47777 22528 ft 332 kts 75°
2026-04-26 19:06 60.16952 23.52344 21943 ft 325 kts 76°
2026-04-26 19:06 60.17115 23.56841 21310 ft 319 kts 74°
2026-04-26 19:07 60.17420 23.61184 20666 ft 311 kts 71°
2026-04-26 19:07 60.17799 23.65432 20058 ft 307 kts 70°
2026-04-26 19:07 60.18198 23.69618 19454 ft 303 kts 70°
2026-04-26 19:07 60.18611 23.73744 18889 ft 299 kts 70°
2026-04-26 19:08 60.19038 23.77811 18326 ft 296 kts 70°
2026-04-26 19:08 60.19478 23.81829 17712 ft 293 kts 70°
2026-04-26 19:08 60.19915 23.85801 17116 ft 290 kts 70°
2026-04-26 19:08 60.20340 23.89737 16527 ft 287 kts 70°
2026-04-26 19:09 60.20754 23.93634 15961 ft 284 kts 70°
2026-04-26 19:09 60.21157 23.97493 15408 ft 281 kts 70°
2026-04-26 19:09 60.21550 24.01319 14875 ft 278 kts 70°
2026-04-26 19:09 60.21932 24.05112 14336 ft 275 kts 70°
2026-04-26 19:10 60.22311 24.08866 13834 ft 273 kts 71°
2026-04-26 19:10 60.22706 24.12527 13245 ft 271 kts 70°
2026-04-26 19:10 60.23107 24.16204 12662 ft 268 kts 70°
2026-04-26 19:10 60.23504 24.19850 12091 ft 265 kts 70°
2026-04-26 19:11 60.23895 24.23466 11524 ft 263 kts 70°
2026-04-26 19:11 60.24280 24.27045 10950 ft 261 kts 71°
2026-04-26 19:11 60.24340 24.30715 10402 ft 270 kts 96°
2026-04-26 19:11 60.23525 24.34166 9839 ft 281 kts 126°
2026-04-26 19:12 60.22072 24.36829 9197 ft 284 kts 139°
2026-04-26 19:12 60.20498 24.39226 8559 ft 283 kts 140°
2026-04-26 19:12 60.18921 24.41577 7944 ft 281 kts 140°
2026-04-26 19:12 60.17352 24.43912 7444 ft 280 kts 140°
2026-04-26 19:13 60.15815 24.46195 7301 ft 271 kts 140°
2026-04-26 19:13 60.14312 24.48423 7019 ft 267 kts 140°
2026-04-26 19:13 60.12818 24.50636 6696 ft 266 kts 140°
2026-04-26 19:13 60.11520 24.53182 6387 ft 256 kts 115°
2026-04-26 19:14 60.11002 24.56435 6048 ft 239 kts 83°
2026-04-26 19:14 60.11378 24.59498 5685 ft 219 kts 50°
2026-04-26 19:14 60.12439 24.61488 5324 ft 206 kts 25°
2026-04-26 19:14 60.12860 24.61962 5201 ft 206 kts 22°
2026-04-26 19:15 60.14995 24.64052 4628 ft 205 kts 20°
2026-04-26 19:15 60.16280 24.65266 4301 ft 204 kts 20°
2026-04-26 19:15 60.17550 24.66471 3816 ft 201 kts 20°
2026-04-26 19:15 60.18812 24.67671 3357 ft 198 kts 20°
2026-04-26 19:16 60.20003 24.68820 3201 ft 182 kts 20°
2026-04-26 19:16 60.21099 24.69894 3106 ft 169 kts 20°
2026-04-26 19:16 60.22113 24.70899 2967 ft 155 kts 20°
2026-04-26 19:16 60.22941 24.72190 2712 ft 152 kts 40°
2026-04-26 19:17 60.23648 24.73717 2473 ft 147 kts 38°
2026-04-26 19:17 60.24332 24.75185 2247 ft 137 kts 38°
2026-04-26 19:17 60.24960 24.76546 2064 ft 130 kts 37°
2026-04-26 19:17 60.25566 24.77860 1878 ft 127 kts 37°
2026-04-26 19:18 60.25961 24.78719 1763 ft 126 kts 37°
2026-04-26 19:18 60.26554 24.80011 1571 ft 126 kts 38°
2026-04-26 19:18 60.27148 24.81300 1351 ft 125 kts 39°
2026-04-26 19:18 60.27742 24.82594 1297 ft 126 kts 40°
2026-04-26 19:19 60.28338 24.83905 1080 ft 127 kts 41°
2026-04-26 19:19 60.28947 24.85223 848 ft 130 kts 42°
2026-04-26 19:19 60.29561 24.86589 681 ft 132 kts 45°
2026-04-26 19:19 60.30185 24.87965 508 ft 133 kts 43°
2026-04-26 19:20 60.30817 24.89339 319 ft 134 kts 43°
2026-04-26 19:20 60.31231 24.90254 207 ft 134 kts 42°
2026-04-26 19:20 60.31998 24.91893 151 ft 94 kts 47°
2026-04-26 19:20 60.32352 24.92692 170 ft 66 kts 49°
2026-04-26 19:21 60.32622 24.93304 180 ft 52 kts 48°
2026-04-26 19:21 60.32846 24.93803 182 ft 45 kts 48°
2026-04-26 19:21 60.33028 24.94210 195 ft 24 kts 57°
2026-04-26 19:21 60.33047 24.94551 185 ft 27 kts 93°
2026-04-26 19:22 60.33062 24.94857 179 ft 17 kts 51°
2026-04-26 19:22 60.33110 24.95078 178 ft 18 kts 88°
2026-04-26 19:22 60.33162 24.95290 179 ft 17 kts 50°
2026-04-26 19:22 60.33207 24.95484 183 ft 14 kts 100°
2026-04-26 19:23 60.33143 24.95640 180 ft 15 kts 137°
2026-04-26 19:23 60.33066 24.95774 181 ft 14 kts 144°
2026-04-26 19:23 60.32987 24.95868 179 ft 15 kts 150°
2026-04-26 19:23 60.32836 24.96045 174 ft 28 kts 150°
2026-04-26 19:24 60.32669 24.96242 172 ft 27 kts 149°
2026-04-26 19:24 60.32510 24.96429 174 ft 25 kts 150°
2026-04-26 19:24 60.32195 24.96795 166 ft 24 kts 150°
2026-04-26 19:25 60.32053 24.96958 166 ft 23 kts 150°
2026-04-26 19:25 60.31961 24.97056 166 ft 22 kts 153°
2026-04-26 19:25 60.31775 24.97245 166 ft 23 kts 153°
2026-04-26 19:25 60.31678 24.97347 166 ft 7 kts 162°
2026-04-26 19:26 60.31646 24.97295 166 ft 6 kts 242°
2026-04-26 19:26 60.31634 24.97246 167 ft 1 kts 243°
2026-04-26 19:26 60.31633 24.97245 167 ft 0 kts 243°